This demonstration page uses our WeatherBlox Daily Observations layout. Learn more.

Left ArrowRight Arrow

47.50024, -111.30081

Hourly Observations for October 5, 2022

Temp ( °F °C ) Dew Point ( °F °C ) Humidity (%) Winds ( mph kmh ) Pressure ( in mb ) Visibility ( mi km ) Precip ( " mm )
12:53 am 00:53 Clear 46 7.8 42 5.6 86 86 WSW 7 11 30.15 1021 10 16 0.00 0.00
1:53 am 01:53 Clear 46 7.8 43 6.1 89 89 WSW 8 13 30.15 1021 10 16 0.00 0.00
2:53 am 02:53 Clear 46 7.8 41 5 82 82 SSW 8 13 30.15 1021 10 16 0.00 0.00
3:53 am 03:53 Clear 44 6.7 41 5 89 89 WSW 7 11 30.15 1021 10 16 0.00 0.00
4:53 am 04:53 Clear 43 6.1 41 5 93 93 WNW 8 13 30.17 1022 10 16 0.00 0.00
5:53 am 05:53 Clear 44 6.7 40 4.4 85 85 W 5 7 30.18 1022 10 16 0.00 0.00
6:53 am 06:53 Clear 44 6.7 39 3.9 82 82 WSW 5 7 30.20 1023 10 16 0.00 0.00
7:53 am 07:53 Sunny 45 7.2 41 5 86 86 WSW 3 6 30.22 1023 10 16 0.00 0.00
8:53 am 08:53 Sunny 54 12.2 48 8.9 80 80 SSW 6 9 30.21 1023 10 16 0.00 0.00
9:53 am 09:53 Sunny 60 15.6 46 7.8 60 60 W 7 11 30.21 1023 10 16 0.00 0.00
10:53 am 10:53 Sunny 64 17.8 44 6.7 48 48 SSW 10 17 30.20 1023 10 16 0.00 0.00
11:53 am 11:53 Sunny 68 20 47 8.3 47 47 SW 9 15 30.20 1023 10 16 0.00 0.00
12:53 pm 12:53 Sunny 72 22.2 46 7.8 40 40 SW 8 13 30.19 1023 10 16 0.00 0.00
1:53 pm 13:53 Sunny 73 22.8 45 7.2 37 37 W 5 7 30.18 1022 10 16 0.00 0.00
2:53 pm 14:53 Sunny 75 23.9 43 6.1 32 32 WNW 7 11 30.16 1022 10 16 0.00 0.00
3:53 pm 15:53 Sunny 75 23.9 44 6.7 33 33 N 7 11 30.16 1021 10 16 0.00 0.00
4:18 pm 16:18 Sunny 76 24.4 43 6.1 31 31 NNW 7 11 29.98 1015 10 16 0.00 0.00
4:53 pm 16:53 Sunny 76 24.4 42 5.6 30 30 NW 5 7 30.16 1021 10 16 0.00 0.00
5:53 pm 17:53 Sunny 73 22.8 42 5.6 33 33 N 5 7 30.17 1022 10 16 0.00 0.00
6:53 pm 18:53 Sunny 65 18.3 42 5.6 43 43 NE 7 11 30.19 1023 10 16 0.00 0.00
7:53 pm 19:53 Clear 59 15 43 6.1 55 55 ENE 8 13 30.22 1023 10 16 0.00 0.00
8:53 pm 20:53 Clear 58 14.4 43 6.1 57 57 E 8 13 30.21 1023 10 16 0.00 0.00
9:53 pm 21:53 Clear 57 13.9 43 6.1 59 59 ENE 6 9 30.21 1023 10 16 0.00 0.00
10:53 pm 22:53 Cloudy 57 13.9 44 6.7 62 62 ENE 5 7 30.20 1023 10 16 0.00 0.00
11:53 pm 23:53 Mostly Cloudy 52 11.1 44 6.7 74 74 N 8 13 30.23 1024 10 16 0.00 0.00

Powered by AerisWeather